Location: Melizzano
(41.1500°N, 14.5000°E)
Time: 19:35:27
(UTC+00:00)

MOS 1 - Pass Details

Date: 11 May 2021
Orbit: 879 x 890 km, 99.1° (Epoch: 20 June)

Event Time Altitude Azimuth Distance (km) Brightness Sun altitude
Exits shadow 18:54:34 - 156° (SSE) 3,026 6.6 -8.2°
Reaches altitude 10° 18:55:50 10° 154° (SSE) 2,534 6.2 -8.4°
Maximum altitude 19:01:26 69° 73° (ENE) 947 4.3 -9.3°
Drops below altitude 10° 19:07:05 10° 351° (N) 2,558 7.4 -10.2°
Sets 19:09:30 0° 349° (N) 3,503 8.2 -10.6°
